Other Public Products
Issued by NWS Grand Forks, ND

Home | Current Version | Previous Version | Graphics & Text | Print | Product List | Glossary On
Versions: 1 2 3 4 5 6 7 8 9 10 11 12 13 14 15 16 17 18 19 20 21 22 23 24 25 26 27 28 29 30 31 32 33 34 35 36 37 38 39 40 41 42 43 44 45 46 47 48 49 50
000
FPUS83 KFGF 282131
OPUFGF
PRAIRIE TO PINES WEATHER ROUNDUP
NATIONAL WEATHER SERVICE EASTERN NORTH DAKOTA/GRAND FORKS ND
400 PM CDT SUN MAY 28 2017

 **SATELLITE DATA USED TO AUGMENT SKY COVER AT AUTOMATED STATIONS**
 *****  WEATHER ACROSS EASTERN NORTH DAKOTA  *****

CITY           SKY/WX    TMP DP  RH WIND       PRES   REMARKS
GRAND FORKS    PTSUNNY   64  51  62 N14       29.72R
GRAND FORKS AF PTSUNNY   60  50  68 NW13G20   29.72F
GRAND CITY NWS NOT AVBL
BUXTON           N/A     58  53  84 W10         N/A
DEVILS LAKE    CLOUDY    57  43  59 NW28G33   29.78S
FARGO          PTSUNNY   67  41  38 NW38G59   29.72S HAZE
WAHPETON ARPT  FAIR      68  34  28 NW23G29   29.74F
$$

 *****  WEATHER ACROSS CENTRAL AND WESTERN NORTH DAKOTA  *****

CITY           SKY/WX    TMP DP  RH WIND       PRES   REMARKS
JAMESTOWN      PTSUNNY   61  47  59 NW20G28   29.78S
BISMARCK       FAIR      73  39  29 NW22G35   29.85F
MINOT          PTSUNNY   66  38  35 NW28G45   29.88R
MINOT AFB      PTSUNNY   66  39  37 N31G39    29.87R
GARRISON         N/A     68  36  30 N30G45    29.88R
WILLISTON      PTSUNNY   70  34  26 N26G32    29.99S
DICKINSON      FAIR      71  30  21 N29G37    29.93S
HETTINGER      FAIR      73  38  27 NW24G41   29.95S
$$

 *****  OTHER OBSERVATIONS NORTHEAST NORTH DAKOTA  *****

CITY           SKY/WX    TMP DP  RH WIND       PRES   REMARKS
WALHALLA       NOT AVBL
LANGDON        CLOUDY    54  50  87 N21       29.76R
CAVALIER       MOCLDY    57  48  72 NW18G26   29.73R
GRAFTON        MOCLDY    59  50  72 NW21G31   29.74R
CANDO          NOT AVBL
FORT TOTTEN      N/A     56  45  66 NW12      29.95S
ROLLA          CLOUDY    54  45  71 NW26G33   29.83R
RUGBY          NOT AVBL
 ***** THE ABOVE OBSERVATIONS ARE NON NWS ARE NOT QUALITY
        CONTROLLED AND MAY MIS-REPORT RAIN FOR SNOW...
$$

 *****  OTHER OBSERVATIONS SOUTHEAST NORTH DAKOTA *****

CITY           SKY/WX    TMP DP  RH WIND       PRES   REMARKS
COOPERSTOWN    FAIR      59  48  67 NW18G25   29.78R
VALLEY CITY    FAIR      64  45  48 NW20G26   29.79F
OAKES          NOT AVBL
GWINNER        MOCLDY    55  48  76 MISG      29.83R
SHEYENNE NWR     N/A     58  41  53 NW18      29.95S
BUFFALO          N/A     56  43  62 CALM        N/A
WYNDMERE         N/A     72  37  28 NW18        N/A
 ***** THE ABOVE OBSERVATIONS ARE NON NWS ARE NOT QUALITY
       CONTROLLED AND MAY MIS-REPORT RAIN FOR SNOW...
$$

  *****  WEATHER ACROSS NORTHERN MINNESOTA  *****

CITY           SKY/WX    TMP DP  RH WIND       PRES   REMARKS
FLAG ISLAND    LGT RAIN  55  50  82 W17       29.64S
WARROAD        FAIR      61  48  63 NW14      29.66R
ROSEAU         FAIR      61  48  63 W14G20    29.66S
HALLOCK        PTSUNNY   63  48  59 NW17G25   29.69F
THF RVR FALLS  FAIR      58  52  80 W14       29.70F
HALSTAD          N/A     58  50  74 NW16        N/A
FOSSTON        PTSUNNY   54  46  76 W12       29.72F
BAUDETTE       PTSUNNY   57  50  77 NW10      29.64F
WASKISH        CLOUDY    61  48  63 W9        29.66S
CROOKSTON      PTSUNNY   57  54  88 NW10      29.73S
$$
  *****  WEATHER ACROSS CENTRAL AND WEST MINNESOTA  *****

CITY           SKY/WX    TMP DP  RH WIND       PRES   REMARKS
BEMIDJI        CLOUDY    58  45  61 W20G28    29.70R
PARK RAPIDS    TSTM      51  42  71 NW29G49   29.75R
WADENA         TSTM      63  48  59 W13G20    29.72S
DETROIT LAKES  TSTM      54  45  71 N8G21     29.76R
MOORHEAD       TSTM      63  48  59 N17G26    29.76R
FERGUS FALLS   PTSUNNY   66  43  42 N8G33     29.71F
ELBOW LAKE     FAIR      68  44  41 W21       29.75F
MORRIS MN      FAIR      73  41  31 NW22G31   29.74F
STAPLES        FAIR      64  43  45 NW16      29.72S THUNDER
WHEATON        FAIR      72  36  26 NW18G28   29.76F
$$
  *****  WEATHER ELSEWHERE ACROSS MINNESOTA  *****

CITY           SKY/WX    TMP DP  RH WIND       PRES   REMARKS
DULUTH         PTSUNNY   60  48  64 W18       29.64S
INTRNTL FALLS  PTSUNNY   60  55  83 CALM      29.61F
ELY            LGT RAIN  52  48  87 W3        29.63S
CLOQUET        FAIR      57  48  72 W13G20    29.68S
BRAINERD       FAIR      61  48  62 N13G20    29.72F
HIBBING        LGT RAIN  53  52  96 W8        29.65R
ALEXANDRIA     FAIR      66  49  54 NW20G25   29.76F
SAINT CLOUD    CLOUDY    65  46  50 W13       29.73R
MINNEAPOLIS    PTSUNNY   73  43  33 NW17G30   29.72S
$$

  *****  WEATHER ACROSS SOUTH DAKOTA  *****

CITY           SKY/WX    TMP DP  RH WIND       PRES   REMARKS
SIOUX FALLS    PTSUNNY   73  43  33 NW22G31   29.87S
BROOKINGS      FAIR      71  39  31 NW21G31   29.84F
WATERTOWN      FAIR      70  40  33 NW18G26   29.83F
HURON          FAIR      75  37  25 NW24G32   29.85F
SISSETON         N/A     73  38  27 NW21G31   29.75F
ABERDEEN       FAIR      73  42  32 N15G23    29.83F
MITCHELL       FAIR      77  36  22 NW15G30   29.90S
PIERRE         FAIR      79  35  20 NW15G25   29.90F
MOBRIDGE       FAIR      76  38  25 W29G38    29.83F
RAPID CITY     FAIR      76  38  25 NW16G25   30.02F
$$

  *****  SOME WEATHER IN NEARBY STATES *****

CITY           SKY/WX    TMP DP  RH WIND       PRES   REMARKS
GLASGOW MT     FAIR      74  31  20 N18G32    30.08S
GREAT FALLS MT FAIR      72  41  32 NE6       30.22F
CHEYENNE WY    FAIR      62  32  32 N21G33    30.25S
SCOTTSBLUFF NE FAIR      74  42  31 NW14G26   30.12F
OMAHA NE       FAIR      82  44  26 NW21G33   29.87R
DES MOINES IA  PTSUNNY   80  47  31 W15       29.81F
DAVENPORT IA   FAIR      76  51  41 W21G28    29.78S
CHICAGO IL     FAIR      77  53  43 NW13G22   29.72S
EAU CLAIRE WI  FAIR      71  45  39 W21G28    29.68F
LA CROSSE WI   PTSUNNY   76  48  37 W12       29.72S
$$

  *****  SOME NATIONAL WEATHER *****

CITY           SKY/WX    TMP DP  RH WIND       PRES   REMARKS
LA GUARDIA NY  PTSUNNY   69  51  52 S14       29.93R
RALEIGH NC     CLOUDY    82  65  56 W9        29.82R
ATLANTA GA     PTSUNNY   83  65  54 W12G17    29.91R
NEW ORLEANS LA FAIR      87  71  58 NE12      29.95F HX  93
OKLAHOMA CITY  FAIR      81  52  36 N14G21    30.03F
ALBUQUERQUE NM FAIR      76  26  15 VRB6      30.19F
SALT LAKE CITY FAIR      77  34  21 VRB5      30.19F
LOS ANGELES CA FAIR      68  56  65 W15       30.01F
BOISE ID       FAIR      82  37  20 S8        30.15F
SEATTLE WA     FAIR      79  50  36 NW9       30.08F
$$

*** WEATHER ACROSS MANITOBA...SASKATCHEWAN AND ONTARIO ***
                ***ONTARIO***

CITY           SKY/WX    TMP DP  RH WIND       PRES   REMARKS
GERALDTON      PTSUNNY   66  50  55 SE9       29.61F
THUNDER BAY    CLOUDY    61  46  59 SE12      29.61R
SIOUX LOOKOUT  PTSUNNY   63  48  59 S6        29.57F
TORONTO        MOSUNNY   70  55  60 E12       29.74F
BIG TROUT LK   PTSUNNY   72  43  35 S5        29.59S
PICKLE LAKE    PTSUNNY   63  52  67 SE8       29.60S
DRYDEN         RAIN      52  50  93 N6        29.61F
KENORA         PTSUNNY   59  46  63 NW13      29.62S
$$
                *** MANITOBA***

CITY           SKY/WX    TMP DP  RH WIND       PRES   REMARKS
BRANDON        PTSUNNY   55  46  71 N26G38    29.82
DAUPHIN        CLOUDY    54  48  82 N17       29.83S
ISLAND LAKE    CLOUDY    50  48  93 NW12      29.67R
PILOT MOUND      N/A     54  45  71 NW22G30     N/A
THE PAS        CLOUDY    46  41  81 N16G26    29.88R
THOMPSON       LGT RAIN  41  39  93 N8G17     29.80R FOG
WINNIPEG       CLOUDY    54  48  82 NW28      29.72R
LYNN LAKE      CLOUDY    50  45  81 N10G17    29.92S
CHURCHILL      CLOUDY    36  32  87 NE14      29.84R
GILLAM         CLOUDY    39  37  93 N8        29.74S
$$
                ***SASKATCHEWAN***

CITY           SKY/WX    TMP DP  RH WIND       PRES   REMARKS
ESTEVAN        LGT RAIN  63  41  45 N32G41    29.95R
KINDERSLEY     MOSUNNY   64  34  32 N20G30    30.17R
LLOYDMINSTER   MOSUNNY   61  32  33 N15G22    30.21F
PRINCE ALBERT  PTSUNNY   61  41  48 N18G26    30.07R
REGINA         PTSUNNY   64  39  39 N22G37    30.01R
YORKTON          N/A     54  46  76 NW17G24   29.91S


USA.gov is the U.S. government's official web portal to all federal, state and local government web resources and services.